This is the latest recevied weather packets stored in our database for station/object KB3VSP. If no packets are shown the sender has not sent any weather packets the latest 10 day(s).
| Time | Temp. | Humidity | Pressure | Rain* | Wind** | Luminosity | Snow |
|---|---|---|---|---|---|---|---|
| 1778018299 | 21.67° C | 58% | 1008.4 hPa | 0 mm | - | 45 W/m² | - |
| 1778017997 | 21.67° C | 58% | 1008.2 hPa | 0 mm | - | 46 W/m² | - |
| 1778017695 | 21.67° C | 58% | 1008.3 hPa | 0 mm | - | 64 W/m² | - |
| 1778017392 | 21.67° C | 58% | 1008.4 hPa | 0 mm | - | 72 W/m² | - |
| 1778017088 | 21.67° C | 57% | 1008.2 hPa | 0 mm | - | 81 W/m² | - |
| 1778016787 | 21.67° C | 56% | 1008.1 hPa | 0 mm | - | 71 W/m² | - |
| 1778016482 | 21.67° C | 57% | 1008.2 hPa | 0 mm | - | 85 W/m² | - |
| 1778016180 | 21.67° C | 58% | 1008 hPa | 0 mm | - | 99 W/m² | - |
| 1778015876 | 21.67° C | 58% | 1008 hPa | 0 mm | - | 108 W/m² | - |
| 1778015574 | 21.67° C | 59% | 1008.3 hPa | 0 mm | - | 94 W/m² | - |
| 1778015269 | 21.67° C | 59% | 1008.1 hPa | 0 mm | - | 81 W/m² | - |
| 1778014967 | 21.67° C | 59% | 1008.1 hPa | 0 mm | - | 73 W/m² | - |
| 1778014664 | 21.67° C | 59% | 1008.1 hPa | 0 mm | - | 62 W/m² | - |
| 1778014362 | 21.67° C | 59% | 1007.9 hPa | 0 mm | - | 65 W/m² | - |
| 1778014058 | 21.67° C | 59% | 1008.3 hPa | 0 mm | - | 98 W/m² | - |
| 1778013756 | 21.11° C | 59% | 1008.1 hPa | 0 mm | - | 87 W/m² | - |
| 1778013453 | 21.67° C | 59% | 1008.2 hPa | 0 mm | - | 65 W/m² | - |
| 1778013150 | 21.11° C | 59% | 1008.1 hPa | 0 mm | - | 105 W/m² | - |
| 1778012846 | 21.11° C | 59% | 1007.9 hPa | 0 mm | - | 76 W/m² | - |
| 1778012542 | 21.67° C | 59% | 1008.1 hPa | 0 mm | - | 81 W/m² | - |
| 1778012239 | 21.11° C | 58% | 1008.4 hPa | 0 mm | - | 116 W/m² | - |
| 1778011937 | 21.11° C | 59% | 1008.2 hPa | 0 mm | - | 88 W/m² | - |
| 1778011635 | 21.11° C | 60% | 1008.2 hPa | 0 mm | - | 94 W/m² | - |
| 1778011331 | 21.11° C | 59% | 1008.3 hPa | 0 mm | - | 82 W/m² | - |
| 1778011027 | 21.11° C | 58% | 1008.4 hPa | 0 mm | - | 98 W/m² | - |
* Rain latest hour (hover to see other rain measurements)
** Current wind speed in m/s (hover to see current wind gust speed)